Language: 


Des rapports , des résumés tant et plus, au choix de chacun....


Données statistiques de la station
Quotidien Rapport Janvier 8, 2017 Unités:  Métrique    Anglais   les deux
« Précédent Jour
Suivant Jour »
Quotidien Hebdomadaire Mensuel Annuel Actuel
  Haut: Bas: Moyen:
Température: 8.8 °C 0.0 °C 6.6 °C
Pt de rosée: 8.4 °C 3.9 °C 6.3 °C
Humidité: 98 % 0 % 97 %
Vitesse du vent: 6.9 km/h 0.0 km/h 0.8 km/h
Rafales: 15.4 km/h - -
Vent:- - SW
Pression: 1031.0 hPa 0.0 hPa -
Précipitation: 0.0 mm    
Historical Graphs
 
 
Données statistiques pour Janvier 8, 2017
Heure Température Point de rosée Pression Vent Vitesse du vent Refales Humidité Pluie (taux horaire)
00:04 4.4 °C 4.1 °C 1030.0 hPa Calm   4.0 km/h 98 % 0.0 mm
00:09 4.5 °C 4.2 °C 1030.0 hPa Calm   4.0 km/h 98 % 0.0 mm
00:14 4.4 °C 4.1 °C 1030.0 hPa Calm     98 % 0.0 mm
00:19 4.3 °C 4.0 °C 1030.0 hPa Calm     98 % 0.0 mm
00:24 4.2 °C 3.9 °C 1030.0 hPa Calm     98 % 0.0 mm
00:29 4.2 °C 3.9 °C 1030.0 hPa Calm     98 % 0.0 mm
00:34 4.3 °C 4.0 °C 1030.0 hPa Calm     98 % 0.0 mm
00:39 4.5 °C 4.2 °C 1030.0 hPa Calm     98 % 0.0 mm
00:45 4.6 °C 4.3 °C 1030.0 hPa Calm   1.8 km/h 98 % 0.0 mm
00:50 4.8 °C 4.5 °C 1030.0 hPa Calm   4.3 km/h 98 % 0.0 mm
00:55 5.5 °C 5.2 °C 1030.0 hPa Calm   7.6 km/h 98 % 0.0 mm
01:00 5.8 °C 5.5 °C 1030.0 hPa Calm   7.6 km/h 98 % 0.0 mm
01:05 6.2 °C 5.9 °C 1030.0 hPa NW 6.1 km/h 6.9 km/h 98 % 0.0 mm
01:10 6.3 °C 6.0 °C 1030.0 hPa NW 5.0 km/h 7.6 km/h 98 % 0.0 mm
01:15 6.6 °C 6.3 °C 1030.0 hPa Calm   9.0 km/h 98 % 0.0 mm
01:20 6.6 °C 6.3 °C 1030.0 hPa Calm   9.0 km/h 98 % 0.0 mm
01:25 6.6 °C 6.3 °C 1031.0 hPa Calm   5.8 km/h 98 % 0.0 mm
01:30 6.7 °C 6.4 °C 1031.0 hPa North 3.2 km/h 5.0 km/h 98 % 0.0 mm
01:35 6.8 °C 6.4 °C 1031.0 hPa North 6.4 km/h 15.4 km/h 98 % 0.0 mm
01:40 6.8 °C 6.4 °C 1031.0 hPa North 3.2 km/h 15.4 km/h 98 % 0.0 mm
01:45 6.8 °C 6.4 °C 1031.0 hPa Calm   4.7 km/h 98 % 0.0 mm
01:50 6.8 °C 6.4 °C 1031.0 hPa Calm   2.6 km/h 98 % 0.0 mm
01:55 6.8 °C 6.4 °C 1030.0 hPa Calm   1.8 km/h 98 % 0.0 mm
02:02 0.0 °C 6.4 °C 0.0 hPa Calm     0 % 0.0 mm
02:07 6.6 °C 6.3 °C 1031.0 hPa Calm   3.2 km/h 98 % 0.0 mm
02:12 6.4 °C 6.1 °C 1031.0 hPa Calm   3.2 km/h 98 % 0.0 mm
02:17 6.3 °C 6.0 °C 1031.0 hPa Calm   1.4 km/h 98 % 0.0 mm
02:22 6.1 °C 5.8 °C 1030.0 hPa Calm     98 % 0.0 mm
02:27 5.6 °C 5.3 °C 1030.0 hPa Calm     98 % 0.0 mm
02:32 5.3 °C 5.0 °C 1030.0 hPa Calm     98 % 0.0 mm
02:37 5.0 °C 4.7 °C 1030.0 hPa Calm     98 % 0.0 mm
02:42 4.8 °C 4.5 °C 1030.0 hPa Calm     98 % 0.0 mm
02:47 5.0 °C 4.7 °C 1030.0 hPa West 2.1 km/h 6.4 km/h 98 % 0.0 mm
02:52 5.0 °C 4.7 °C 1030.0 hPa West 3.5 km/h 6.4 km/h 98 % 0.0 mm
02:57 5.0 °C 4.7 °C 1030.0 hPa West 5.5 km/h 5.8 km/h 98 % 0.0 mm
03:02 5.0 °C 4.7 °C 1030.0 hPa West 4.0 km/h 6.9 km/h 98 % 0.0 mm
03:07 5.2 °C 4.9 °C 1030.0 hPa Calm   6.8 km/h 98 % 0.0 mm
03:12 5.2 °C 4.9 °C 1030.0 hPa Calm   5.8 km/h 98 % 0.0 mm
03:17 5.0 °C 4.7 °C 1030.0 hPa Calm     98 % 0.0 mm
03:22 5.0 °C 4.7 °C 1030.0 hPa West 5.0 km/h 6.1 km/h 98 % 0.0 mm
03:27 5.0 °C 4.7 °C 1030.0 hPa West 4.7 km/h 6.1 km/h 98 % 0.0 mm
03:32 4.9 °C 4.6 °C 1030.0 hPa West 4.3 km/h 6.9 km/h 98 % 0.0 mm
03:37 4.9 °C 4.6 °C 1030.0 hPa Calm   6.9 km/h 98 % 0.0 mm
03:42 4.7 °C 4.4 °C 1030.0 hPa West 4.0 km/h 5.8 km/h 98 % 0.0 mm
03:47 4.9 °C 4.6 °C 1030.0 hPa Calm   5.8 km/h 98 % 0.0 mm
03:52 4.9 °C 4.6 °C 1030.0 hPa Calm   5.5 km/h 98 % 0.0 mm
03:57 5.0 °C 4.7 °C 1030.0 hPa Calm     98 % 0.0 mm
04:02 4.9 °C 4.6 °C 1030.0 hPa Calm     98 % 0.0 mm
04:07 4.7 °C 4.4 °C 1030.0 hPa West 3.5 km/h 3.5 km/h 98 % 0.0 mm
04:12 4.6 °C 4.3 °C 1030.0 hPa Calm   4.3 km/h 98 % 0.0 mm
04:17 4.5 °C 4.2 °C 1030.0 hPa West 6.1 km/h 6.4 km/h 98 % 0.0 mm
04:22 4.5 °C 4.2 °C 1030.0 hPa West 4.3 km/h 6.4 km/h 98 % 0.0 mm
04:27 4.5 °C 4.2 °C 1030.0 hPa Calm   6.1 km/h 98 % 0.0 mm
04:32 4.8 °C 4.5 °C 1030.0 hPa West 6.1 km/h 6.9 km/h 98 % 0.0 mm
04:37 5.0 °C 4.7 °C 1030.0 hPa West 5.8 km/h 6.9 km/h 98 % 0.0 mm
04:42 5.1 °C 4.8 °C 1030.0 hPa West 3.2 km/h 6.9 km/h 98 % 0.0 mm
04:47 5.0 °C 4.7 °C 1030.0 hPa West 4.7 km/h 6.9 km/h 98 % 0.0 mm
04:57 5.0 °C 4.7 °C 1030.0 hPa Calm   7.9 km/h 98 % 0.0 mm
05:02 5.1 °C 4.8 °C 1030.0 hPa West 2.1 km/h 7.9 km/h 98 % 0.0 mm
05:07 5.2 °C 4.9 °C 1030.0 hPa WNW 4.7 km/h 7.6 km/h 98 % 0.0 mm
05:12 5.3 °C 5.0 °C 1030.0 hPa West 4.0 km/h 6.9 km/h 98 % 0.0 mm
05:17 5.3 °C 5.0 °C 1030.0 hPa West 5.0 km/h 6.9 km/h 98 % 0.0 mm
05:22 5.5 °C 5.2 °C 1030.0 hPa WNW 4.7 km/h 6.4 km/h 98 % 0.0 mm
05:27 5.6 °C 5.3 °C 1030.0 hPa Calm   6.4 km/h 98 % 0.0 mm
05:32 5.6 °C 5.3 °C 1030.0 hPa West 3.2 km/h 6.4 km/h 98 % 0.0 mm
05:37 5.7 °C 5.4 °C 1030.0 hPa West 4.0 km/h 6.1 km/h 98 % 0.0 mm
05:42 5.7 °C 5.4 °C 1030.0 hPa Calm   6.1 km/h 98 % 0.0 mm
05:47 5.7 °C 5.4 °C 1030.0 hPa West 3.5 km/h 3.5 km/h 98 % 0.0 mm
05:52 5.7 °C 5.4 °C 1030.0 hPa Calm   5.0 km/h 98 % 0.0 mm
05:57 5.8 °C 5.5 °C 1030.0 hPa Calm   5.8 km/h 98 % 0.0 mm
06:02 5.9 °C 5.6 °C 1030.0 hPa West 1.4 km/h 6.4 km/h 98 % 0.0 mm
06:12 6.0 °C 5.7 °C 1030.0 hPa Calm   5.0 km/h 98 % 0.0 mm
06:17 6.0 °C 5.7 °C 1030.0 hPa Calm   4.7 km/h 98 % 0.0 mm
06:22 6.0 °C 5.7 °C 1030.0 hPa Calm   4.0 km/h 98 % 0.0 mm
06:27 6.0 °C 5.7 °C 1030.0 hPa Calm     98 % 0.0 mm
06:32 6.0 °C 5.7 °C 1030.0 hPa Calm   1.4 km/h 98 % 0.0 mm
06:37 6.0 °C 5.7 °C 1030.0 hPa Calm   1.4 km/h 98 % 0.0 mm
06:42 5.8 °C 5.5 °C 1030.0 hPa Calm     98 % 0.0 mm
06:52 5.6 °C 5.3 °C 1030.0 hPa Calm   5.0 km/h 98 % 0.0 mm
06:57 5.6 °C 5.3 °C 1030.0 hPa Calm     98 % 0.0 mm
07:02 5.4 °C 5.1 °C 1030.0 hPa Calm     98 % 0.0 mm
07:12 5.3 °C 5.0 °C 1031.0 hPa WSW 6.4 km/h 6.9 km/h 98 % 0.0 mm
07:22 5.5 °C 5.2 °C 1031.0 hPa West 5.5 km/h 6.9 km/h 98 % 0.0 mm
07:27 5.7 °C 5.4 °C 1031.0 hPa Calm   5.8 km/h 98 % 0.0 mm
07:32 5.6 °C 5.3 °C 1031.0 hPa Calm   5.8 km/h 98 % 0.0 mm
07:37 5.6 °C 5.3 °C 1030.0 hPa Calm     98 % 0.0 mm
07:48 5.9 °C 5.6 °C 1030.0 hPa Calm     98 % 0.0 mm
07:53 5.9 °C 5.6 °C 1031.0 hPa Calm     98 % 0.0 mm
08:02 5.9 °C 5.6 °C 1031.0 hPa Calm   3.5 km/h 98 % 0.0 mm
08:08 5.7 °C 5.4 °C 1031.0 hPa Calm   3.2 km/h 98 % 0.0 mm
08:12 5.7 °C 5.4 °C 1031.0 hPa Calm     98 % 0.0 mm
08:18 5.5 °C 5.2 °C 1031.0 hPa Calm     98 % 0.0 mm
08:23 5.5 °C 5.2 °C 1031.0 hPa West 4.0 km/h 4.3 km/h 98 % 0.0 mm
08:28 5.6 °C 5.3 °C 1031.0 hPa Calm   4.3 km/h 98 % 0.0 mm
08:33 5.7 °C 5.4 °C 1031.0 hPa Calm   4.0 km/h 98 % 0.0 mm
08:38 5.7 °C 5.4 °C 1030.0 hPa Calm   2.1 km/h 98 % 0.0 mm
08:43 5.7 °C 5.4 °C 1030.0 hPa Calm   4.7 km/h 98 % 0.0 mm
08:48 5.7 °C 5.4 °C 1030.0 hPa Calm   4.7 km/h 98 % 0.0 mm
08:53 5.8 °C 5.5 °C 1031.0 hPa Calm   4.7 km/h 98 % 0.0 mm
08:58 5.7 °C 5.4 °C 1031.0 hPa Calm   4.7 km/h 98 % 0.0 mm
09:03 5.7 °C 5.4 °C 1031.0 hPa Calm     98 % 0.0 mm
09:08 5.7 °C 5.4 °C 1031.0 hPa Calm     98 % 0.0 mm
09:13 5.7 °C 5.4 °C 1031.0 hPa Calm     98 % 0.0 mm
09:18 5.7 °C 5.4 °C 1031.0 hPa Calm     98 % 0.0 mm
09:23 5.7 °C 5.4 °C 1030.0 hPa Calm     98 % 0.0 mm
09:28 5.8 °C 5.5 °C 1030.0 hPa Calm     98 % 0.0 mm
09:33 5.9 °C 5.6 °C 1030.0 hPa Calm     98 % 0.0 mm
09:38 5.9 °C 5.6 °C 1031.0 hPa Calm     98 % 0.0 mm
09:48 6.1 °C 5.8 °C 1031.0 hPa Calm     98 % 0.0 mm
09:53 6.2 °C 5.9 °C 1031.0 hPa Calm     98 % 0.0 mm
09:58 6.2 °C 5.9 °C 1031.0 hPa Calm     98 % 0.0 mm
10:03 6.3 °C 6.0 °C 1031.0 hPa Calm     98 % 0.0 mm
10:08 6.3 °C 6.0 °C 1031.0 hPa Calm     98 % 0.0 mm
10:13 6.3 °C 6.0 °C 1031.0 hPa Calm     98 % 0.0 mm
10:18 6.4 °C 6.1 °C 1031.0 hPa Calm     98 % 0.0 mm
10:23 6.4 °C 6.2 °C 1030.0 hPa Calm     98 % 0.0 mm
10:28 6.6 °C 6.3 °C 1030.0 hPa Calm     98 % 0.0 mm
10:33 6.7 °C 6.4 °C 1030.0 hPa Calm     98 % 0.0 mm
10:38 6.8 °C 6.6 °C 1031.0 hPa Calm     98 % 0.0 mm
10:43 7.1 °C 6.8 °C 1031.0 hPa Calm     98 % 0.0 mm
10:48 7.3 °C 6.9 °C 1031.0 hPa Calm     98 % 0.0 mm
10:53 7.4 °C 7.2 °C 1031.0 hPa Calm     98 % 0.0 mm
10:58 7.6 °C 7.3 °C 1031.0 hPa Calm     98 % 0.0 mm
11:03 7.7 °C 7.3 °C 1031.0 hPa Calm     98 % 0.0 mm
11:08 7.8 °C 7.6 °C 1030.0 hPa Calm     98 % 0.0 mm
11:13 7.8 °C 7.6 °C 1030.0 hPa Calm   5.0 km/h 98 % 0.0 mm
11:18 8.1 °C 7.7 °C 1030.0 hPa Calm   5.0 km/h 98 % 0.0 mm
11:23 8.1 °C 7.8 °C 1031.0 hPa Calm     98 % 0.0 mm
11:33 8.4 °C 8.1 °C 1031.0 hPa Calm     98 % 0.0 mm
11:38 8.5 °C 8.2 °C 1031.0 hPa Calm     98 % 0.0 mm
11:43 8.6 °C 8.3 °C 1031.0 hPa Calm     98 % 0.0 mm
11:48 8.7 °C 8.4 °C 1031.0 hPa Calm     98 % 0.0 mm
11:53 8.7 °C 8.4 °C 1031.0 hPa Calm     98 % 0.0 mm
11:58 8.8 °C 8.4 °C 1031.0 hPa Calm     97 % 0.0 mm
12:03 8.7 °C 8.4 °C 1031.0 hPa NE 4.3 km/h 4.3 km/h 98 % 0.0 mm
12:08 8.6 °C 8.3 °C 1031.0 hPa NNE 4.7 km/h 5.8 km/h 98 % 0.0 mm
12:13 8.7 °C 8.4 °C 1031.0 hPa NE 3.2 km/h 5.8 km/h 98 % 0.0 mm
12:18 8.7 °C 8.4 °C 1031.0 hPa NNE 3.5 km/h 5.5 km/h 98 % 0.0 mm
12:23 8.7 °C 8.3 °C 1031.0 hPa Calm   5.5 km/h 97 % 0.0 mm
12:28 8.7 °C 8.3 °C 1031.0 hPa Calm   4.7 km/h 97 % 0.0 mm
12:33 8.8 °C 8.4 °C 1031.0 hPa Calm   1.8 km/h 97 % 0.0 mm
12:38 8.8 °C 8.4 °C 1030.0 hPa Calm   2.6 km/h 97 % 0.0 mm
12:43 8.8 °C 8.4 °C 1030.0 hPa Calm   2.6 km/h 97 % 0.0 mm
12:48 8.8 °C 8.4 °C 1030.0 hPa Calm     97 % 0.0 mm
12:53 8.7 °C 8.3 °C 1030.0 hPa SSE 6.4 km/h 6.4 km/h 97 % 0.0 mm
12:58 8.6 °C 8.2 °C 1030.0 hPa Calm   6.4 km/h 97 % 0.0 mm
13:03 8.5 °C 8.1 °C 1030.0 hPa Calm   5.8 km/h 97 % 0.0 mm
13:08 8.5 °C 8.1 °C 1031.0 hPa Calm   4.3 km/h 97 % 0.0 mm
13:13 8.5 °C 8.1 °C 1031.0 hPa Calm   4.3 km/h 97 % 0.0 mm
13:18 8.4 °C 8.0 °C 1031.0 hPa Calm     97 % 0.0 mm
13:23 8.5 °C 8.1 °C 1031.0 hPa Calm   1.8 km/h 97 % 0.0 mm
13:28 8.5 °C 8.1 °C 1031.0 hPa Calm   1.8 km/h 97 % 0.0 mm
13:38 8.5 °C 8.1 °C 1031.0 hPa Calm   5.8 km/h 97 % 0.0 mm
13:43 8.6 °C 8.2 °C 1031.0 hPa Calm   4.0 km/h 97 % 0.0 mm
13:53 8.6 °C 8.2 °C 1031.0 hPa Calm     97 % 0.0 mm
13:58 8.6 °C 8.2 °C 1031.0 hPa Calm     97 % 0.0 mm
14:03 8.7 °C 8.3 °C 1031.0 hPa Calm   4.7 km/h 97 % 0.0 mm
14:08 8.7 °C 8.3 °C 1031.0 hPa South 4.3 km/h 4.7 km/h 97 % 0.0 mm
14:16 8.6 °C 8.2 °C 1031.0 hPa South 1.4 km/h 5.8 km/h 97 % 0.0 mm
14:22 8.6 °C 8.2 °C 1031.0 hPa South 4.3 km/h 4.7 km/h 97 % 0.0 mm
14:30 8.6 °C 8.2 °C 1031.0 hPa Calm   4.3 km/h 97 % 0.0 mm
14:53 8.6 °C 8.2 °C 1031.0 hPa Calm     97 % 0.0 mm
15:05 8.6 °C 8.2 °C 1031.0 hPa Calm     97 % 0.0 mm
15:29 8.5 °C 8.1 °C 1031.0 hPa SW 3.2 km/h 3.5 km/h 97 % 0.0 mm
15:34 8.4 °C 8.0 °C 1031.0 hPa Calm   4.0 km/h 97 % 0.0 mm
15:39 8.4 °C 8.0 °C 1031.0 hPa Calm   4.0 km/h 97 % 0.0 mm
15:44 8.4 °C 8.0 °C 1031.0 hPa Calm     97 % 0.0 mm
15:49 8.3 °C 7.9 °C 1031.0 hPa Calm     97 % 0.0 mm
15:59 8.3 °C 7.9 °C 1031.0 hPa Calm     97 % 0.0 mm
16:04 8.3 °C 7.9 °C 1031.0 hPa Calm     97 % 0.0 mm
16:09 8.2 °C 7.8 °C 1031.0 hPa Calm     97 % 0.0 mm
16:14 8.2 °C 7.8 °C 1031.0 hPa Calm     97 % 0.0 mm
16:19 8.2 °C 7.8 °C 1031.0 hPa Calm     97 % 0.0 mm
16:24 8.1 °C 7.7 °C 1031.0 hPa Calm     97 % 0.0 mm
16:29 8.1 °C 7.7 °C 1031.0 hPa Calm     97 % 0.0 mm
16:34 8.1 °C 7.6 °C 1031.0 hPa Calm     97 % 0.0 mm
16:39 8.1 °C 7.6 °C 1031.0 hPa Calm     97 % 0.0 mm
16:44 7.9 °C 7.5 °C 1031.0 hPa Calm     97 % 0.0 mm
16:49 7.9 °C 7.5 °C 1031.0 hPa Calm     97 % 0.0 mm
16:54 7.8 °C 7.4 °C 1031.0 hPa Calm     97 % 0.0 mm
16:59 7.8 °C 7.4 °C 1031.0 hPa Calm     97 % 0.0 mm
17:04 7.7 °C 7.3 °C 1031.0 hPa Calm     97 % 0.0 mm
17:09 7.7 °C 7.3 °C 1031.0 hPa Calm     97 % 0.0 mm
17:14 7.7 °C 7.3 °C 1031.0 hPa Calm     97 % 0.0 mm
17:19 7.7 °C 7.2 °C 1031.0 hPa Calm     97 % 0.0 mm
17:24 7.7 °C 7.2 °C 1031.0 hPa Calm     97 % 0.0 mm
17:29 7.6 °C 7.1 °C 1031.0 hPa Calm     97 % 0.0 mm
17:34 7.6 °C 7.1 °C 1031.0 hPa Calm     97 % 0.0 mm
17:39 7.6 °C 7.1 °C 1031.0 hPa Calm     97 % 0.0 mm
17:44 7.4 °C 7.0 °C 1031.0 hPa Calm     97 % 0.0 mm
17:49 7.6 °C 7.1 °C 1031.0 hPa Calm   3.2 km/h 97 % 0.0 mm
17:54 7.6 °C 7.1 °C 1031.0 hPa Calm   3.5 km/h 97 % 0.0 mm
17:59 7.6 °C 7.1 °C 1031.0 hPa Calm   3.5 km/h 97 % 0.0 mm
18:09 7.4 °C 7.0 °C 1031.0 hPa Calm     97 % 0.0 mm
18:14 7.4 °C 7.0 °C 1031.0 hPa Calm   4.7 km/h 97 % 0.0 mm
18:20 7.4 °C 7.0 °C 1031.0 hPa Calm   4.7 km/h 97 % 0.0 mm
18:25 7.4 °C 7.0 °C 1031.0 hPa Calm   4.7 km/h 97 % 0.0 mm
18:30 7.4 °C 7.0 °C 1031.0 hPa Calm   5.8 km/h 97 % 0.0 mm
18:35 7.4 °C 7.0 °C 1031.0 hPa Calm   5.8 km/h 97 % 0.0 mm
18:40 7.4 °C 7.0 °C 1030.0 hPa South 3.2 km/h 4.0 km/h 97 % 0.0 mm
18:45 7.3 °C 6.9 °C 1030.0 hPa Calm   4.7 km/h 97 % 0.0 mm
18:50 7.3 °C 6.9 °C 1030.0 hPa Calm   5.5 km/h 97 % 0.0 mm
18:55 7.3 °C 6.9 °C 1031.0 hPa Calm   5.5 km/h 97 % 0.0 mm
19:00 7.3 °C 6.9 °C 1031.0 hPa Calm     97 % 0.0 mm
19:05 7.3 °C 6.8 °C 1031.0 hPa Calm     97 % 0.0 mm
19:10 7.3 °C 6.8 °C 1030.0 hPa Calm     97 % 0.0 mm
19:15 7.3 °C 6.8 °C 1030.0 hPa Calm     97 % 0.0 mm
19:20 7.3 °C 6.8 °C 1030.0 hPa Calm     97 % 0.0 mm
19:25 7.2 °C 6.7 °C 1030.0 hPa Calm     97 % 0.0 mm
19:30 7.2 °C 6.7 °C 1030.0 hPa Calm     97 % 0.0 mm
19:35 7.2 °C 6.7 °C 1030.0 hPa Calm   1.4 km/h 97 % 0.0 mm
19:40 7.2 °C 6.7 °C 1030.0 hPa Calm   1.4 km/h 97 % 0.0 mm
19:45 7.1 °C 6.6 °C 1030.0 hPa Calm     97 % 0.0 mm
19:50 7.1 °C 6.6 °C 1030.0 hPa Calm     97 % 0.0 mm
19:55 7.1 °C 6.6 °C 1030.0 hPa Calm     97 % 0.0 mm
20:00 7.1 °C 6.6 °C 1030.0 hPa Calm     97 % 0.0 mm
20:05 6.9 °C 6.5 °C 1030.0 hPa Calm     97 % 0.0 mm
20:10 6.9 °C 6.5 °C 1030.0 hPa Calm     97 % 0.0 mm
20:15 6.9 °C 6.5 °C 1030.0 hPa Calm     97 % 0.0 mm
20:20 6.8 °C 6.4 °C 1030.0 hPa Calm   1.8 km/h 97 % 0.0 mm
20:21 6.8 °C 6.4 °C 1030.0 hPa Calm   1.8 km/h 97 % 0.0 mm
20:26 6.8 °C 6.4 °C 1030.0 hPa Calm   1.8 km/h 97 % 0.0 mm
20:31 6.8 °C 6.4 °C 1030.0 hPa Calm     97 % 0.0 mm
20:36 6.8 °C 6.4 °C 1030.0 hPa Calm     97 % 0.0 mm
20:41 6.8 °C 6.4 °C 1030.0 hPa Calm     98 % 0.0 mm
20:46 6.8 °C 6.4 °C 1030.0 hPa Calm     98 % 0.0 mm
20:51 6.7 °C 6.2 °C 1030.0 hPa Calm     97 % 0.0 mm
20:56 6.7 °C 6.2 °C 1031.0 hPa Calm     97 % 0.0 mm
21:01 6.7 °C 6.4 °C 1031.0 hPa Calm     98 % 0.0 mm
21:06 6.7 °C 6.4 °C 1031.0 hPa Calm     98 % 0.0 mm
21:11 6.7 °C 6.4 °C 1031.0 hPa Calm   1.4 km/h 98 % 0.0 mm
21:16 6.7 °C 6.4 °C 1031.0 hPa Calm   1.4 km/h 98 % 0.0 mm
21:21 6.7 °C 6.4 °C 1031.0 hPa Calm     98 % 0.0 mm
21:26 6.7 °C 6.4 °C 1031.0 hPa Calm     98 % 0.0 mm
21:31 6.7 °C 6.4 °C 1031.0 hPa Calm   4.0 km/h 98 % 0.0 mm
21:36 6.7 °C 6.4 °C 1031.0 hPa South 1.8 km/h 4.0 km/h 98 % 0.0 mm
21:41 6.7 °C 6.4 °C 1031.0 hPa Calm   3.2 km/h 98 % 0.0 mm
21:46 6.7 °C 6.4 °C 1031.0 hPa Calm   3.2 km/h 98 % 0.0 mm
21:51 6.7 °C 6.4 °C 1031.0 hPa Calm   3.2 km/h 98 % 0.0 mm
21:56 6.7 °C 6.4 °C 1030.0 hPa Calm   4.0 km/h 98 % 0.0 mm
22:01 6.6 °C 6.3 °C 1030.0 hPa Calm   4.0 km/h 98 % 0.0 mm
22:06 6.6 °C 6.3 °C 1030.0 hPa Calm   4.0 km/h 98 % 0.0 mm
22:11 6.7 °C 6.4 °C 1030.0 hPa Calm   3.2 km/h 98 % 0.0 mm
22:16 6.7 °C 6.4 °C 1030.0 hPa South 3.2 km/h 5.0 km/h 98 % 0.0 mm
22:21 6.7 °C 6.4 °C 1030.0 hPa Calm   5.8 km/h 98 % 0.0 mm
22:26 6.7 °C 6.4 °C 1030.0 hPa Calm   5.8 km/h 98 % 0.0 mm
22:31 6.6 °C 6.3 °C 1030.0 hPa SSE 4.7 km/h 4.7 km/h 98 % 0.0 mm
22:36 6.6 °C 6.3 °C 1030.0 hPa South 4.3 km/h 5.0 km/h 98 % 0.0 mm
22:41 6.6 °C 6.3 °C 1030.0 hPa Calm   5.0 km/h 98 % 0.0 mm
22:51 6.4 °C 6.2 °C 1030.0 hPa Calm     98 % 0.0 mm
22:56 6.4 °C 6.2 °C 1030.0 hPa SSW 4.3 km/h 4.3 km/h 98 % 0.0 mm
23:01 6.4 °C 6.1 °C 1030.0 hPa South 4.0 km/h 5.8 km/h 98 % 0.0 mm
23:06 6.4 °C 6.1 °C 1030.0 hPa SSW 5.8 km/h 5.8 km/h 98 % 0.0 mm
23:11 6.4 °C 6.1 °C 1030.0 hPa Calm   6.1 km/h 98 % 0.0 mm
23:16 6.4 °C 6.1 °C 1030.0 hPa Calm   6.1 km/h 98 % 0.0 mm
23:21 6.4 °C 6.1 °C 1030.0 hPa Calm   5.5 km/h 98 % 0.0 mm
23:26 6.4 °C 6.1 °C 1030.0 hPa SW 6.9 km/h 6.9 km/h 98 % 0.0 mm
23:31 6.4 °C 6.1 °C 1030.0 hPa SSW 4.3 km/h 6.9 km/h 98 % 0.0 mm
23:36 6.3 °C 6.0 °C 1030.0 hPa Calm   6.4 km/h 98 % 0.0 mm
23:41 6.3 °C 6.0 °C 1030.0 hPa Calm   3.5 km/h 98 % 0.0 mm
23:46 6.3 °C 6.0 °C 1030.0 hPa SSW 2.1 km/h 5.5 km/h 98 % 0.0 mm
23:51 6.2 °C 5.9 °C 1030.0 hPa Calm   5.5 km/h 98 % 0.0 mm
23:56 6.2 °C 5.9 °C 1030.0 hPa Calm   5.0 km/h 98 % 0.0 mm
Le Gheer Warneton
Courtoisie de Weather Underground - 2.25 mb

Mise a jour : 18/12/2017 23:07:11
Généré par Cumulus 1.9.4 (1099)